{"data":{"norad_id":52579,"epoch":"2026-09-18T14:19:29.019360Z","epoch_age_seconds":227687,"freshness":"STALE","line1":"1 52579U 22051AV  26261.59686365  .11876742  12476-4  18402-3 0  9991","line2":"2 52579  53.2038 299.9926 0007920 226.6690 133.3703 16.47920096241164","mean_motion":16.47920096,"eccentricity":0.000792,"inclination_deg":53.2038,"raan_deg":299.9926,"arg_perigee_deg":226.669,"mean_anomaly_deg":133.3703,"bstar":0.00018402,"rev_number":24116,"period_min":87.382877573695,"perigee_km":139.65220386164,"apogee_km":149.98456519073,"semimajor_km":6522.9553845262,"source":"CELESTRAK","updated_at":"2026-09-19T09:01:38.943308Z"}}